Tracking 25193 objects as of 17-Jan-2022
HD Live streaming from Space Station
objects crossing your sky now

STARLINK-2589

Track STARLINK-2589 now!
10-day predictions
STARLINK-2589 is classified as:


NORAD ID: 48371
Int'l Code: 2021-038U
Perigee: 553.1 km
Apogee: 555.5 km
Inclination: 53.1 °
Period: 95.6 minutes
Semi major axis: 6925 km
RCS: Unknown
Launch date: May 4, 2021
Source: United States (US)
Launch site: AIR FORCE EASTERN TEST RANGE (AFETR)
aabbcc
Your satellite tracking list
Your tracking list is empty




NASA's NSSDC Master Catalog

Two Line Element Set (TLE):
1 48371U 21038U   22016.78672029  .00003248  00000-0  23674-3 0  9991
2 48371  53.0564 303.3114 0001746  64.9304 295.1866 15.06415735 39137
Source of the keplerian elements: AFSPC